Location: Antin
(43.3330°N, 0.2804°E)
Time: 07:31:02
(UTC+00:00)

SME Rocket - Pass Details

Date: 01 June 2022
Orbit: 551 x 2650 km, 99.9° (Epoch: 06 July)

Event Time Altitude Azimuth Distance (km) Brightness Sun altitude
Exits shadow 01:16:07 50° 153° (SSE) 875 3.5 -22.1°
Maximum altitude 01:17:17 82° 73° (ENE) 735 3.3 -22.1°
Drops below altitude 10° 01:22:58 10° 346° (NNW) 2,703 7.1 -21.7°
Sets 01:25:56 0° 346° (NNW) 3,947 8.0 -21.5°
